EN

Hourly Weather Abaclia

Today, 12 June, Saturday

Time Temperature Precipitation Wind Pressure Humidity
00:00 +19°C° 0 mm 2 mps 754 mmHg 73%
01:00 +19°C° 0 mm 2 mps 754 mmHg 74%
02:00 +18°C° 0 mm 2 mps 754 mmHg 76%
03:00 +18°C° 0 mm 2 mps 754 mmHg 78%
04:00 +17°C° 0 mm 2 mps 754 mmHg 80%
05:00 +17°C° 0 mm 2 mps 754 mmHg 81%
06:00 +19°C° 0 mm 2 mps 754 mmHg 75%
07:00 +20°C° 0 mm 3 mps 755 mmHg 69%
08:00 +22°C° 0 mm 3 mps 755 mmHg 62%
09:00 +24°C° 0 mm 3 mps 755 mmHg 58%
10:00 +25°C° 0 mm 3 mps 755 mmHg 53%
11:00 +26°C° 0 mm 3 mps 754 mmHg 49%
12:00 +27°C° 0 mm 3 mps 754 mmHg 47%
13:00 +27°C° 0 mm 2 mps 754 mmHg 45%
14:00 +28°C° 0 mm 2 mps 754 mmHg 42%
15:00 +27°C° 0 mm 2 mps 754 mmHg 46%
16:00 +27°C° 0 mm 2 mps 753 mmHg 49%
17:00 +26°C° 0 mm 1 mps 753 mmHg 52%
18:00 +25°C° 0 mm 1 mps 753 mmHg 54%
19:00 +24°C° 0 mm 2 mps 753 mmHg 57%
20:00 +24°C° 0 mm 2 mps 753 mmHg 59%
21:00 +23°C° 0 mm 2 mps 753 mmHg 61%
22:00 +21°C° 0 mm 2 mps 753 mmHg 63%
23:00 +22°C° 0 mm 1 mps 753 mmHg 65%

Tomorrow, 13 June, Sunday

Time Temperature Precipitation Wind Pressure Humidity
00:00 +20°C° 0 mm 2 mps 753 mmHg 68%
01:00 +20°C° 0 mm 2 mps 753 mmHg 71%
02:00 +19°C° 0 mm 3 mps 752 mmHg 74%
03:00 +19°C° 0 mm 3 mps 752 mmHg 77%
04:00 +18°C° 0 mm 3 mps 752 mmHg 81%
05:00 +18°C° 0 mm 3 mps 751 mmHg 84%
06:00 +19°C° 0 mm 4 mps 751 mmHg 75%
07:00 +21°C° 0 mm 5 mps 751 mmHg 67%
08:00 +23°C° 0 mm 5 mps 751 mmHg 58%
09:00 +23°C° 0.1 mm 6 mps 751 mmHg 57%
10:00 +24°C° 0.1 mm 7 mps 751 mmHg 56%
11:00 +24°C° 0.1 mm 7 mps 751 mmHg 54%
12:00 +22°C° 0.4 mm 8 mps 752 mmHg 62%
13:00 +20°C° 0.4 mm 8 mps 752 mmHg 70%
14:00 +16°C° 0.4 mm 9 mps 753 mmHg 78%
15:00 +16°C° 0.3 mm 8 mps 753 mmHg 77%
16:00 +16°C° 0.3 mm 7 mps 753 mmHg 77%
17:00 +16°C° 0.3 mm 7 mps 753 mmHg 77%
18:00 +16°C° 0 mm 6 mps 753 mmHg 77%
19:00 +16°C° 0 mm 5 mps 753 mmHg 77%
20:00 +15°C° 0 mm 4 mps 753 mmHg 77%
21:00 +15°C° 0 mm 4 mps 754 mmHg 78%
22:00 +15°C° 0 mm 5 mps 754 mmHg 78%
23:00 +14°C° 0 mm 5 mps 754 mmHg 78%

Day after tomorrow, 14 June, Monday

Time Temperature Precipitation Wind Pressure Humidity
00:00 +14°C° 0 mm 6 mps 754 mmHg 80%
01:00 +13°C° 0 mm 6 mps 754 mmHg 82%
02:00 +12°C° 0 mm 7 mps 754 mmHg 84%
03:00 +11°C° 0 mm 7 mps 754 mmHg 85%
04:00 +11°C° 0 mm 6 mps 754 mmHg 86%
05:00 +11°C° 0 mm 6 mps 754 mmHg 87%
06:00 +12°C° 0 mm 7 mps 754 mmHg 82%
07:00 +14°C° 0 mm 7 mps 754 mmHg 76%
08:00 +15°C° 0 mm 7 mps 754 mmHg 71%
09:00 +16°C° 0.1 mm 7 mps 754 mmHg 70%
10:00 +16°C° 0.1 mm 7 mps 754 mmHg 69%
11:00 +17°C° 0.1 mm 7 mps 754 mmHg 68%
12:00 +17°C° 0.2 mm 7 mps 754 mmHg 67%
13:00 +17°C° 0.2 mm 7 mps 754 mmHg 65%
14:00 +18°C° 0.2 mm 7 mps 754 mmHg 64%
15:00 +18°C° 0.1 mm 7 mps 754 mmHg 64%
16:00 +18°C° 0.1 mm 7 mps 754 mmHg 65%
17:00 +18°C° 0.1 mm 7 mps 754 mmHg 65%
18:00 +16°C° 0.1 mm 7 mps 754 mmHg 71%
19:00 +15°C° 0.1 mm 7 mps 754 mmHg 78%
20:00 +14°C° 0.1 mm 7 mps 754 mmHg 84%
21:00 +12°C° 0 mm 7 mps 754 mmHg 86%
22:00 +12°C° 0 mm 7 mps 754 mmHg 88%
23:00 +12°C° 0 mm 7 mps 754 mmHg 90%

15 June, Tuesday

Time Temperature Precipitation Wind Pressure Humidity
00:00 +12°C° 0 mm 7 mps 754 mmHg 89%
01:00 +11°C° 0 mm 7 mps 754 mmHg 89%
02:00 +11°C° 0 mm 7 mps 754 mmHg 88%
03:00 +13°C° 0 mm 6 mps 754 mmHg 88%
04:00 +13°C° 0 mm 6 mps 754 mmHg 88%
05:00 +13°C° 0 mm 6 mps 754 mmHg 88%
06:00 +14°C° 0 mm 6 mps 754 mmHg 88%
07:00 +15°C° 0 mm 7 mps 754 mmHg 87%
08:00 +16°C° 0 mm 7 mps 754 mmHg 86%
09:00 +19°C° 0 mm 6 mps 754 mmHg 81%
10:00 +20°C° 0 mm 6 mps 754 mmHg 75%
11:00 +22°C° 0 mm 5 mps 754 mmHg 70%
12:00 +23°C° 0.4 mm 6 mps 754 mmHg 64%
13:00 +24°C° 0.4 mm 6 mps 754 mmHg 59%
14:00 +26°C° 0.4 mm 6 mps 753 mmHg 54%
15:00 +26°C° 0.5 mm 7 mps 753 mmHg 60%
16:00 +24°C° 0.5 mm 8 mps 753 mmHg 65%
17:00 +23°C° 0.5 mm 8 mps 753 mmHg 71%
18:00 +22°C° 0.8 mm 8 mps 753 mmHg 75%
19:00 +21°C° 0.8 mm 8 mps 754 mmHg 79%
20:00 +20°C° 0.8 mm 8 mps 754 mmHg 83%
21:00 +20°C° 0.2 mm 8 mps 754 mmHg 84%
22:00 +18°C° 0.2 mm 8 mps 754 mmHg 84%
23:00 +18°C° 0.2 mm 8 mps 754 mmHg 85%

16 June, Wednesday

Time Temperature Precipitation Wind Pressure Humidity
00:00 +17°C° 0 mm 8 mps 754 mmHg 84%
01:00 +17°C° 0 mm 8 mps 754 mmHg 83%
02:00 +17°C° 0 mm 8 mps 754 mmHg 82%
03:00 +16°C° 0 mm 7 mps 755 mmHg 82%
04:00 +16°C° 0 mm 7 mps 755 mmHg 81%
05:00 +15°C° 0 mm 6 mps 755 mmHg 81%
06:00 +17°C° 0 mm 7 mps 755 mmHg 77%
07:00 +18°C° 0 mm 7 mps 755 mmHg 72%
08:00 +20°C° 0 mm 8 mps 755 mmHg 68%
09:00 +22°C° 0 mm 8 mps 755 mmHg 63%
10:00 +23°C° 0 mm 8 mps 756 mmHg 58%
11:00 +24°C° 0 mm 8 mps 756 mmHg 53%
12:00 +26°C° 0 mm 8 mps 756 mmHg 50%
13:00 +26°C° 0 mm 8 mps 756 mmHg 48%
14:00 +27°C° 0 mm 7 mps 755 mmHg 45%
15:00 +27°C° 0 mm 7 mps 756 mmHg 46%
16:00 +27°C° 0 mm 7 mps 756 mmHg 48%
17:00 +27°C° 0 mm 6 mps 756 mmHg 49%
18:00 +25°C° 0 mm 5 mps 756 mmHg 55%
19:00 +23°C° 0 mm 4 mps 757 mmHg 62%
20:00 +21°C° 0 mm 3 mps 757 mmHg 69%
21:00 +20°C° 0 mm 3 mps 757 mmHg 73%
22:00 +20°C° 0 mm 3 mps 757 mmHg 77%
23:00 +19°C° 0 mm 3 mps 758 mmHg 81%

17 June, Thursday

Time Temperature Precipitation Wind Pressure Humidity
00:00 +18°C° 0 mm 3 mps 758 mmHg 84%
01:00 +18°C° 0 mm 3 mps 758 mmHg 87%
02:00 +18°C° 0 mm 3 mps 758 mmHg 91%
03:00 +18°C° 0 mm 3 mps 758 mmHg 92%
04:00 +18°C° 0 mm 3 mps 758 mmHg 92%
05:00 +17°C° 0 mm 3 mps 758 mmHg 93%
06:00 +19°C° 0 mm 4 mps 758 mmHg 86%
07:00 +21°C° 0 mm 5 mps 759 mmHg 79%
08:00 +22°C° 0 mm 5 mps 759 mmHg 72%
09:00 +24°C° 0 mm 6 mps 759 mmHg 65%
10:00 +26°C° 0 mm 6 mps 759 mmHg 59%
11:00 +28°C° 0 mm 6 mps 759 mmHg 52%
12:00 +28°C° 0 mm 5 mps 759 mmHg 49%
13:00 +29°C° 0 mm 5 mps 758 mmHg 45%
14:00 +30°C° 0 mm 5 mps 758 mmHg 41%
15:00 +29°C° 0 mm 5 mps 758 mmHg 44%
16:00 +29°C° 0 mm 4 mps 758 mmHg 47%
17:00 +28°C° 0 mm 4 mps 758 mmHg 50%
18:00 +27°C° 0 mm 4 mps 758 mmHg 55%
19:00 +26°C° 0 mm 4 mps 759 mmHg 61%
20:00 +23°C° 0 mm 4 mps 759 mmHg 66%
21:00 +23°C° 0 mm 4 mps 759 mmHg 71%
22:00 +22°C° 0 mm 4 mps 759 mmHg 75%
23:00 +21°C° 0 mm 3 mps 759 mmHg 79%
Show more